User: anonymous   Login
Location: Unspecified
(0.0000°N, 0.0000°E)
Time: 20:21:59
(UTC+00:00)
Language:

STARLINK-3728 - Orbit

View from above orbital plane
View from above orbital plane
View from above satellite
View from above satellite

Ground track
Ground track

The orbit is defined by the following mean orbital elements,

1 52361U          26145.37652839 +.00000000 +00000-0 +39927-4 0 00005
2 52361  53.2127 214.8631 0001149  86.3089 273.8035 15.08838848    04
Epoch (UTC): 25 May 2026 09:02:12
Eccentricity: 0.0001149
inclination: 53.2127°
perigee height: 539 km
apogee height: 541 km
right ascension of ascending node: 214.8631°
argument of perigee: 86.3089°
revolutions per day: 15.08838848
mean anomaly at epoch: 273.8035°

The dashed part of the orbit path shows where the satellite is in the earth's shadow,  

DLR